Location: Newark
(42.8481°N, 0.4872°E)
Time: 23:47:43
(UTC+00:00)

Transit 2A Rocket - Pass Details

Date: 29 October 2020
Orbit: 588 x 914 km, 66.7° (Epoch: 29 November)

Event Time Altitude Azimuth Distance (km) Brightness Sun altitude
Rises 11:48:03 0° 277° (W) 3,533 8.4 33.4°
Reaches altitude 10° 11:52:30 10° 307° (NW) 2,558 7.5 33.4°
Maximum altitude 11:54:44 12° 329° (NNW) 2,385 7.2 33.4°
Drops below altitude 10° 11:56:56 10° 351° (N) 2,504 7.3 33.3°
Sets 12:01:11 0° 22° (NNE) 3,368 7.8 33.3°
